Weather History for Wright-Patt AFB, OH

Change the Weather History Date:

Thursday, November 7, 2013

  Actual Average Record
Temperature  
Mean Temperature 43 °F -  
Max Temperature 48 °F 53 °F 73 °F (1996)
Min Temperature 38 °F 35 °F 22 °F (2010)
Degree Days  
Heating Degree Days 22    
Moisture  
Dew Point 33 °F    
Average Humidity 67    
Maximum Humidity 93    
Minimum Humidity 42    
Precipitation  
Precipitation 0.05 in - - ()
Sea Level Pressure  
Sea Level Pressure 30.16 in    
Wind  
Wind Speed 10 mph (WNW)    
Max Wind Speed 18 mph    
Max Gust Speed 23 mph    
Visibility 10 miles    
Events Rain    
Averages and records for this station are not official NWS values.
T = Trace of Precipitation, MM = Missing Value Source: NWS Daily Summary

Daily Weather History Graph

Daily Weather History Graph

Search for Another Location

Airport:

Trip Planner

Search our weather history database for the weather conditions in past years. The results will help you decide how hot, cold, wet, or windy it might be!

Date:

Astronomy

Nov. 07, 2013 Rise Set
Actual Time 7:12 AM EST 5:27 PM EST
Civil Twilight 6:43 AM EST 5:55 PM EST
Nautical Twilight 6:11 AM EST 6:27 PM EST
Astronomical Twilight 5:39 AM EST 6:59 PM EST
Moon 11:19 AM EST (11/7) 9:37 PM EST (11/7)
Length of Visible Light 11h 12m
Length of Day
10h 15m
Waxing Crescent, 22% of the Moon is Illuminated
Nov 7
Waxing Crescent
Nov 10
First Quarter
Nov 17
Full
Nov 25
Last Quarter
Dec 2
New

Hourly Weather History & Observations

Time (EST) Temp. Windchill Dew Point Humidity Pressure Visibility Wind Dir Wind Speed Gust Speed Precip Events Conditions
12:58 AM 44.4 °F 40.5 °F 42.3 °F 92% 30.06 in 10.0 mi WNW 6.9 mph - 0.03 in Rain Light Rain
1:46 AM 44.6 °F 39.7 °F 42.8 °F 93% 30.07 in 9.0 mi WNW 9.2 mph - N/A Rain Light Rain
1:58 AM 44.1 °F 38.1 °F 41.5 °F 91% 30.06 in 10.0 mi NW 11.5 mph - 0.02 in   Light Drizzle
2:14 AM 44.6 °F 39.2 °F 41.0 °F 87% 30.07 in 10.0 mi WNW 10.4 mph - N/A   Overcast
2:24 AM 44.6 °F 39.2 °F 41.0 °F 87% 30.07 in 10.0 mi WNW 10.4 mph - N/A   Overcast
2:34 AM 44.6 °F 38.4 °F 41.0 °F 87% 30.06 in 10.0 mi NW 12.7 mph - N/A   Overcast
2:44 AM 44.6 °F 38.8 °F 41.0 °F 87% 30.07 in 10.0 mi WNW 11.5 mph - N/A   Overcast
2:58 AM 43.7 °F 36.9 °F 40.5 °F 88% 30.09 in 10.0 mi NW 13.8 mph - 0.00 in   Overcast
3:28 AM 42.8 °F 36.2 °F 41.0 °F 93% 30.08 in 10.0 mi NW 12.7 mph - N/A   Overcast
3:38 AM 42.8 °F 37.5 °F 41.0 °F 93% 30.08 in 10.0 mi NW 9.2 mph - N/A   Overcast
3:58 AM 43.2 °F 38.4 °F 40.3 °F 90% 30.09 in 10.0 mi NW 8.1 mph - N/A   Overcast
4:28 AM 42.8 °F 36.2 °F 39.2 °F 87% 30.09 in 10.0 mi NW 12.7 mph - N/A   Overcast
4:58 AM 42.4 °F 37.5 °F 38.3 °F 85% 30.12 in 10.0 mi WNW 8.1 mph - N/A   Overcast
5:58 AM 41.5 °F 37.1 °F 37.9 °F 87% 30.14 in 10.0 mi WNW 6.9 mph - N/A   Overcast
6:58 AM 40.3 °F 35.5 °F 36.0 °F 85% 30.17 in 10.0 mi NW 6.9 mph - N/A   Scattered Clouds
7:58 AM 39.4 °F 31.8 °F 34.7 °F 83% 30.20 in 10.0 mi WNW 12.7 mph - N/A   Clear
8:58 AM 39.7 °F 31.5 °F 32.2 °F 74% 30.23 in 10.0 mi NW 15.0 mph - N/A   Clear
9:58 AM 41.4 °F 34.3 °F 30.9 °F 66% 30.25 in 10.0 mi NW 12.7 mph - N/A   Clear
10:58 AM 42.8 °F 37.0 °F 28.9 °F 58% 30.26 in 10.0 mi NNW 10.4 mph - N/A   Clear
11:58 AM 45.0 °F 39.3 °F 29.3 °F 54% 30.26 in 10.0 mi NW 11.5 mph 19.6 mph N/A   Partly Cloudy
12:58 PM 46.0 °F 40.2 °F 28.0 °F 50% 30.23 in 10.0 mi WNW 12.7 mph - N/A   Partly Cloudy
1:58 PM 46.6 °F - 27.9 °F 48% 30.22 in 10.0 mi WNW 8.1 mph - N/A   Partly Cloudy
2:19 PM 48.2 °F - 28.4 °F 46% 30.19 in 10.0 mi WNW 12.7 mph 18.4 mph N/A   Scattered Clouds
2:25 PM 48.2 °F - 26.6 °F 43% 30.19 in 10.0 mi West 15.0 mph 18.4 mph N/A   Scattered Clouds
2:26 PM 48.2 °F - 26.6 °F 43% 30.19 in 10.0 mi West 16.1 mph - N/A   Scattered Clouds
2:27 PM 48.2 °F - 26.6 °F 43% 30.18 in 10.0 mi WSW 16.1 mph 23.0 mph N/A   Scattered Clouds
2:33 PM 48.2 °F - 26.6 °F 43% 30.18 in 10.0 mi WNW 12.7 mph 23.0 mph N/A   Scattered Clouds
2:34 PM 48.2 °F - 26.6 °F 43% 30.18 in 10.0 mi WNW 12.7 mph 23.0 mph N/A   Scattered Clouds
2:35 PM 48.2 °F - 26.6 °F 43% 30.18 in 10.0 mi NW 13.8 mph 23.0 mph N/A   Scattered Clouds
2:58 PM 48.0 °F - 27.1 °F 44% 30.20 in 10.0 mi West 18.4 mph 20.7 mph N/A   Partly Cloudy
3:58 PM 47.3 °F - 25.0 °F 42% 30.21 in 10.0 mi West 15.0 mph - N/A   Partly Cloudy
4:58 PM 45.7 °F 41.0 °F 23.9 °F 42% 30.20 in 10.0 mi West 9.2 mph - N/A   Clear
5:58 PM 41.0 °F 37.1 °F 24.6 °F 52% 30.22 in 10.0 mi West 5.8 mph - N/A   Clear
6:58 PM 38.1 °F 32.9 °F 26.4 °F 63% 30.23 in 10.0 mi WSW 6.9 mph - N/A   Clear
7:58 PM 41.0 °F 35.2 °F 27.3 °F 58% 30.23 in 10.0 mi WSW 9.2 mph - N/A   Mostly Cloudy
8:58 PM 41.9 °F 36.9 °F 27.7 °F 57% 30.22 in 10.0 mi WSW 8.1 mph - N/A   Overcast
9:58 PM 41.5 °F 36.4 °F 27.9 °F 58% 30.22 in 10.0 mi SW 8.1 mph - N/A   Overcast
10:58 PM 39.7 °F 34.3 °F 28.6 °F 64% 30.21 in 10.0 mi WSW 8.1 mph - N/A   Mostly Cloudy
11:58 PM 39.4 °F 33.2 °F 29.1 °F 67% 30.21 in 10.0 mi SW 9.2 mph - N/A   Scattered Clouds